When you browse on this site, cookies collect data to enhance your experience and personalize the content and advertising you see.
Visit our Privacy Policy to learn more. By continuing to use the site, you agree to this use of cookies and data.
  • In Austria
  • List of Countries
  • For 7 days
  • Water Temperature
  • Weather Map
  • News
  • Weather Widgets
  • user-avatar
    Login

    Hourly Weather Otrozhnyy

    Today, 7 June, Sunday

    Time Temperature Precipitation Wind Pressure Humidity
    00:00 +15°C° 0 mm 1 mps 747 mmHg 88%
    01:00 +14°C° 0 mm 1 mps 747 mmHg 88%
    02:00 +14°C° 0 mm 1 mps 747 mmHg 89%
    03:00 +14°C° 0 mm 1 mps 748 mmHg 89%
    04:00 +14°C° 0 mm 2 mps 748 mmHg 90%
    05:00 +15°C° 0 mm 2 mps 748 mmHg 86%
    06:00 +17°C° 0 mm 2 mps 748 mmHg 83%
    07:00 +18°C° 0 mm 3 mps 748 mmHg 80%
    08:00 +19°C° 0.2 mm 3 mps 748 mmHg 76%
    09:00 +20°C° 0.2 mm 3 mps 748 mmHg 72%
    10:00 +21°C° 0.2 mm 4 mps 748 mmHg 68%
    11:00 +21°C° 1.2 mm 4 mps 748 mmHg 71%
    12:00 +20°C° 1.2 mm 4 mps 748 mmHg 74%
    13:00 +20°C° 1.2 mm 4 mps 748 mmHg 77%
    14:00 +19°C° 0.7 mm 3 mps 748 mmHg 81%
    15:00 +18°C° 0.7 mm 2 mps 748 mmHg 85%
    16:00 +18°C° 0.7 mm 1 mps 748 mmHg 90%
    17:00 +17°C° 1.6 mm 2 mps 748 mmHg 91%
    18:00 +17°C° 1.6 mm 2 mps 747 mmHg 92%
    19:00 +17°C° 1.6 mm 3 mps 747 mmHg 93%
    20:00 +17°C° 1 mm 3 mps 747 mmHg 93%
    21:00 +17°C° 1 mm 3 mps 748 mmHg 94%
    22:00 +16°C° 1 mm 3 mps 748 mmHg 94%
    23:00 +16°C° 0.3 mm 3 mps 748 mmHg 95%

    Tomorrow, 8 June, Monday

    Time Temperature Precipitation Wind Pressure Humidity
    00:00 +16°C° 0.3 mm 3 mps 747 mmHg 95%
    01:00 +15°C° 0.3 mm 2 mps 747 mmHg 96%
    02:00 +15°C° 0.5 mm 2 mps 747 mmHg 96%
    03:00 +15°C° 0.5 mm 2 mps 747 mmHg 95%
    04:00 +15°C° 0.5 mm 2 mps 747 mmHg 95%
    05:00 +16°C° 0.9 mm 3 mps 747 mmHg 92%
    06:00 +17°C° 0.9 mm 3 mps 747 mmHg 89%
    07:00 +18°C° 0.9 mm 3 mps 747 mmHg 86%
    08:00 +19°C° 0.9 mm 4 mps 747 mmHg 82%
    09:00 +20°C° 0.9 mm 5 mps 748 mmHg 77%
    10:00 +21°C° 0.9 mm 6 mps 748 mmHg 72%
    11:00 +21°C° 0.5 mm 6 mps 748 mmHg 66%
    12:00 +22°C° 0.5 mm 6 mps 748 mmHg 61%
    13:00 +23°C° 0.5 mm 7 mps 748 mmHg 56%
    14:00 +23°C° 0.5 mm 6 mps 748 mmHg 58%
    15:00 +22°C° 0.5 mm 5 mps 747 mmHg 61%
    16:00 +22°C° 0.5 mm 5 mps 747 mmHg 63%
    17:00 +22°C° 0.1 mm 5 mps 747 mmHg 65%
    18:00 +21°C° 0.1 mm 4 mps 747 mmHg 67%
    19:00 +21°C° 0.1 mm 4 mps 747 mmHg 68%
    20:00 +20°C° 0.5 mm 3 mps 747 mmHg 71%
    21:00 +19°C° 0.5 mm 3 mps 748 mmHg 73%
    22:00 +18°C° 0.5 mm 3 mps 748 mmHg 75%
    23:00 +18°C° 0 mm 3 mps 748 mmHg 74%

    Day after tomorrow, 9 June, Tuesday

    Time Temperature Precipitation Wind Pressure Humidity
    00:00 +17°C° 0 mm 3 mps 748 mmHg 73%
    01:00 +17°C° 0 mm 3 mps 748 mmHg 71%
    02:00 +17°C° 0 mm 4 mps 748 mmHg 68%
    03:00 +16°C° 0 mm 5 mps 749 mmHg 64%
    04:00 +17°C° 0 mm 6 mps 749 mmHg 60%
    05:00 +17°C° 0 mm 6 mps 749 mmHg 61%
    06:00 +17°C° 0 mm 6 mps 749 mmHg 61%
    07:00 +19°C° 0 mm 6 mps 750 mmHg 62%
    08:00 +21°C° 0 mm 6 mps 750 mmHg 59%
    09:00 +22°C° 0 mm 6 mps 751 mmHg 56%
    10:00 +24°C° 0 mm 6 mps 751 mmHg 52%
    11:00 +26°C° 0 mm 6 mps 751 mmHg 49%
    12:00 +27°C° 0 mm 6 mps 751 mmHg 45%
    13:00 +28°C° 0 mm 7 mps 751 mmHg 41%
    14:00 +28°C° 0 mm 6 mps 751 mmHg 43%
    15:00 +28°C° 0 mm 6 mps 751 mmHg 44%
    16:00 +27°C° 0 mm 6 mps 751 mmHg 46%
    17:00 +26°C° 0 mm 6 mps 751 mmHg 50%
    18:00 +25°C° 0 mm 5 mps 751 mmHg 55%
    19:00 +23°C° 0 mm 5 mps 751 mmHg 60%
    20:00 +22°C° 0 mm 5 mps 751 mmHg 58%
    21:00 +21°C° 0 mm 5 mps 751 mmHg 57%
    22:00 +20°C° 0 mm 5 mps 751 mmHg 56%
    23:00 +20°C° 0 mm 5 mps 751 mmHg 57%

    10 June, Wednesday

    Time Temperature Precipitation Wind Pressure Humidity
    00:00 +19°C° 0 mm 5 mps 751 mmHg 57%
    01:00 +19°C° 0 mm 5 mps 751 mmHg 58%
    02:00 +19°C° 0 mm 4 mps 751 mmHg 60%
    03:00 +18°C° 0 mm 4 mps 751 mmHg 61%
    04:00 +18°C° 0 mm 4 mps 751 mmHg 62%
    05:00 +19°C° 0 mm 5 mps 751 mmHg 62%
    06:00 +20°C° 0 mm 5 mps 752 mmHg 62%
    07:00 +20°C° 0 mm 5 mps 752 mmHg 62%
    08:00 +22°C° 0 mm 5 mps 752 mmHg 59%
    09:00 +23°C° 0 mm 5 mps 752 mmHg 55%
    10:00 +26°C° 0 mm 5 mps 752 mmHg 51%
    11:00 +27°C° 0 mm 5 mps 752 mmHg 47%
    12:00 +28°C° 0 mm 5 mps 752 mmHg 43%
    13:00 +29°C° 0 mm 5 mps 752 mmHg 39%
    14:00 +29°C° 0 mm 4 mps 752 mmHg 41%
    15:00 +29°C° 0 mm 4 mps 752 mmHg 44%
    16:00 +29°C° 0 mm 3 mps 752 mmHg 46%
    17:00 +28°C° 0 mm 3 mps 751 mmHg 50%
    18:00 +27°C° 0 mm 3 mps 751 mmHg 55%
    19:00 +26°C° 0 mm 3 mps 751 mmHg 59%
    20:00 +24°C° 0 mm 3 mps 751 mmHg 60%
    21:00 +22°C° 0 mm 3 mps 751 mmHg 61%
    22:00 +21°C° 0 mm 3 mps 751 mmHg 63%
    23:00 +20°C° 0 mm 3 mps 751 mmHg 63%

    11 June, Thursday

    Time Temperature Precipitation Wind Pressure Humidity
    00:00 +20°C° 0 mm 3 mps 751 mmHg 63%
    01:00 +20°C° 0 mm 4 mps 751 mmHg 63%
    02:00 +20°C° 0 mm 3 mps 750 mmHg 63%
    03:00 +20°C° 0 mm 3 mps 750 mmHg 63%
    04:00 +20°C° 0 mm 3 mps 750 mmHg 63%
    05:00 +20°C° 0 mm 3 mps 750 mmHg 64%
    06:00 +21°C° 0 mm 3 mps 750 mmHg 65%
    07:00 +21°C° 0 mm 4 mps 750 mmHg 66%
    08:00 +22°C° 0 mm 4 mps 750 mmHg 63%
    09:00 +25°C° 0 mm 4 mps 750 mmHg 60%
    10:00 +26°C° 0 mm 4 mps 750 mmHg 57%
    11:00 +27°C° 0 mm 4 mps 749 mmHg 54%
    12:00 +28°C° 0 mm 4 mps 749 mmHg 52%
    13:00 +29°C° 0 mm 4 mps 749 mmHg 49%
    14:00 +30°C° 0 mm 4 mps 749 mmHg 47%
    15:00 +30°C° 0 mm 4 mps 749 mmHg 45%
    16:00 +32°C° 0 mm 4 mps 748 mmHg 43%
    17:00 +30°C° 0 mm 3 mps 748 mmHg 47%
    18:00 +29°C° 0 mm 2 mps 748 mmHg 52%
    19:00 +28°C° 0 mm 2 mps 747 mmHg 56%
    20:00 +26°C° 0 mm 2 mps 747 mmHg 57%
    21:00 +25°C° 0 mm 3 mps 747 mmHg 58%
    22:00 +22°C° 0 mm 3 mps 747 mmHg 60%
    23:00 +22°C° 0.1 mm 3 mps 747 mmHg 60%

    12 June, Friday

    Time Temperature Precipitation Wind Pressure Humidity
    00:00 +21°C° 0.1 mm 3 mps 746 mmHg 61%
    01:00 +21°C° 0.1 mm 3 mps 746 mmHg 62%
    02:00 +20°C° 0 mm 3 mps 746 mmHg 63%
    03:00 +20°C° 0 mm 3 mps 746 mmHg 65%
    04:00 +19°C° 0 mm 3 mps 745 mmHg 66%
    05:00 +20°C° 0.1 mm 3 mps 745 mmHg 66%
    06:00 +21°C° 0.1 mm 3 mps 745 mmHg 66%
    07:00 +22°C° 0.1 mm 3 mps 745 mmHg 66%
    08:00 +25°C° 0 mm 3 mps 745 mmHg 61%
    09:00 +27°C° 0 mm 3 mps 745 mmHg 56%
    10:00 +29°C° 0 mm 3 mps 745 mmHg 51%
    11:00 +29°C° 0 mm 3 mps 745 mmHg 48%
    12:00 +30°C° 0 mm 3 mps 745 mmHg 45%
    13:00 +31°C° 0 mm 3 mps 745 mmHg 43%
    14:00 +31°C° 0 mm 3 mps 744 mmHg 43%
    15:00 +31°C° 0 mm 3 mps 744 mmHg 43%
    16:00 +31°C° 0 mm 3 mps 744 mmHg 43%
    17:00 +31°C° 0 mm 3 mps 743 mmHg 48%
    18:00 +30°C° 0 mm 2 mps 743 mmHg 53%
    19:00 +29°C° 0 mm 1 mps 743 mmHg 57%
    20:00 +27°C° 0.1 mm 1 mps 743 mmHg 63%
    21:00 +25°C° 0.1 mm 1 mps 742 mmHg 68%
    22:00 +23°C° 0.1 mm 1 mps 742 mmHg 73%
    23:00 +23°C° 0.8 mm 1 mps 742 mmHg 77%
    Show more